Private Wetterstation Sandau
Wetterdaten: Sonntag, 16.09.2012
Datum Zeit Temp. A. Feuchte A. Luftdruck Regen Wind Richtung Richtung Taupunkt Windchill
16.09.2012 00:01 15,1 C 76 % 1017,8 hPa 0,0 l/m 3,6 km/h (1 Bft) W-SW 247 10,9 C 15,1 C
16.09.2012 00:06 15,1 C 76 % 1017,8 hPa 0,0 l/m 5,8 km/h (2 Bft) W-SW 247 10,9 C 15,1 C
16.09.2012 00:11 15,1 C 76 % 1017,7 hPa 0,5 l/m 9,4 km/h (2 Bft) W-SW 247 10,9 C 15,1 C
16.09.2012 00:16 15,1 C 76 % 1017,7 hPa 0,0 l/m 5,0 km/h (1 Bft) W-SW 247 10,9 C 15,1 C
16.09.2012 00:21 15,0 C 76 % 1017,8 hPa 0,0 l/m 6,5 km/h (2 Bft) SW 225 10,8 C 15,0 C
16.09.2012 00:26 15,0 C 76 % 1017,9 hPa 0,0 l/m 4,0 km/h (1 Bft) W 270 10,8 C 15,0 C
16.09.2012 00:31 14,9 C 76 % 1017,9 hPa 0,0 l/m 5,0 km/h (1 Bft) W-SW 247 10,7 C 14,9 C
16.09.2012 00:36 14,9 C 76 % 1017,9 hPa 0,0 l/m 13,3 km/h (3 Bft) W 270 10,7 C 14,9 C
16.09.2012 00:41 14,9 C 77 % 1017,9 hPa 0,0 l/m 3,2 km/h (1 Bft) W-SW 247 10,9 C 14,9 C
16.09.2012 00:46 14,9 C 77 % 1017,9 hPa 0,0 l/m 6,8 km/h (2 Bft) SW 225 10,9 C 14,9 C
16.09.2012 00:51 14,9 C 77 % 1017,9 hPa 0,0 l/m 8,3 km/h (2 Bft) W-SW 247 10,9 C 14,9 C
16.09.2012 00:56 14,9 C 77 % 1017,9 hPa 0,0 l/m 9,4 km/h (2 Bft) W 270 10,9 C 14,9 C
16.09.2012 01:01 14,9 C 77 % 1018,0 hPa 0,0 l/m 6,1 km/h (2 Bft) W-SW 247 10,9 C 14,9 C
16.09.2012 01:06 14,9 C 77 % 1018,0 hPa 0,0 l/m 7,9 km/h (2 Bft) W-SW 247 10,9 C 14,9 C
16.09.2012 01:11 14,9 C 77 % 1018,0 hPa 0,0 l/m 13,3 km/h (3 Bft) W 270 10,9 C 14,9 C
16.09.2012 01:16 14,9 C 77 % 1018,1 hPa 0,0 l/m 3,6 km/h (1 Bft) W 270 10,9 C 14,9 C
16.09.2012 01:21 14,9 C 77 % 1018,0 hPa 0,0 l/m 4,0 km/h (1 Bft) W 270 10,9 C 14,9 C
16.09.2012 01:26 14,9 C 77 % 1018,0 hPa 0,0 l/m 4,0 km/h (1 Bft) W-SW 247 10,9 C 14,9 C
16.09.2012 01:31 14,9 C 77 % 1018,0 hPa 0,0 l/m 5,8 km/h (2 Bft) W-SW 247 10,9 C 14,9 C
16.09.2012 01:36 14,9 C 77 % 1018,0 hPa 0,0 l/m 7,6 km/h (2 Bft) SW 225 10,9 C 14,9 C
16.09.2012 01:41 14,9 C 77 % 1018,1 hPa 0,0 l/m 6,1 km/h (2 Bft) W-SW 247 10,9 C 14,9 C
16.09.2012 01:46 14,9 C 77 % 1018,0 hPa 0,0 l/m 7,2 km/h (2 Bft) W-SW 247 10,9 C 14,9 C
16.09.2012 01:51 14,9 C 77 % 1018,2 hPa 0,0 l/m 8,3 km/h (2 Bft) W-SW 247 10,9 C 14,9 C
16.09.2012 01:56 14,9 C 77 % 1018,1 hPa 0,0 l/m 5,0 km/h (1 Bft) W-SW 247 10,9 C 14,9 C
16.09.2012 02:01 14,9 C 77 % 1018,1 hPa 0,0 l/m 4,7 km/h (1 Bft) W-SW 247 10,9 C 14,9 C
16.09.2012 02:06 14,9 C 77 % 1018,2 hPa 0,0 l/m 2,5 km/h (1 Bft) SW 225 10,9 C 14,9 C
16.09.2012 02:11 14,9 C 77 % 1018,0 hPa 0,0 l/m 2,9 km/h (1 Bft) SW 225 10,9 C 14,9 C
16.09.2012 02:16 14,9 C 77 % 1018,0 hPa 0,0 l/m 4,7 km/h (1 Bft) SW 225 10,9 C 14,9 C
16.09.2012 02:21 14,9 C 77 % 1017,9 hPa 0,0 l/m 0,0 km/h (0 Bft) W 270 10,9 C 14,9 C
16.09.2012 02:26 14,9 C 77 % 1018,0 hPa 0,0 l/m 3,6 km/h (1 Bft) SW 225 10,9 C 14,9 C
16.09.2012 02:31 14,9 C 78 % 1018,0 hPa 0,0 l/m 2,9 km/h (1 Bft) SW 225 11,1 C 14,9 C
16.09.2012 02:36 14,9 C 78 % 1017,9 hPa 0,0 l/m 1,8 km/h (1 Bft) SW 225 11,1 C 14,9 C
16.09.2012 02:41 14,9 C 78 % 1018,0 hPa 0,0 l/m 0,0 km/h (0 Bft) W-SW 247 11,1 C 14,9 C
16.09.2012 02:46 14,9 C 78 % 1018,0 hPa 0,0 l/m 4,0 km/h (1 Bft) SW 225 11,1 C 14,9 C
16.09.2012 02:51 14,9 C 78 % 1018,0 hPa 0,0 l/m 2,5 km/h (1 Bft) SW 225 11,1 C 14,9 C
16.09.2012 02:56 14,9 C 78 % 1017,9 hPa 0,0 l/m 2,2 km/h (1 Bft) S-SW 202 11,1 C 14,9 C
16.09.2012 03:01 14,9 C 78 % 1018,0 hPa 0,0 l/m 4,0 km/h (1 Bft) S-SW 202 11,1 C 14,9 C
16.09.2012 03:06 14,8 C 78 % 1017,9 hPa 0,0 l/m 5,4 km/h (1 Bft) S-SW 202 11,0 C 14,8 C
16.09.2012 03:11 14,8 C 78 % 1017,9 hPa 0,0 l/m 5,0 km/h (1 Bft) W-SW 247 11,0 C 14,8 C
16.09.2012 03:16 14,8 C 78 % 1017,9 hPa 0,0 l/m 0,0 km/h (0 Bft) W-SW 247 11,0 C 14,8 C
16.09.2012 03:21 14,8 C 78 % 1017,9 hPa 0,0 l/m 2,2 km/h (1 Bft) W-SW 247 11,0 C 14,8 C
16.09.2012 03:26 14,8 C 78 % 1017,9 hPa 0,0 l/m 3,2 km/h (1 Bft) SW 225 11,0 C 14,8 C
16.09.2012 03:31 14,8 C 78 % 1018,0 hPa 0,0 l/m 3,6 km/h (1 Bft) SW 225 11,0 C 14,8 C
16.09.2012 03:36 14,8 C 78 % 1017,9 hPa 0,0 l/m 4,0 km/h (1 Bft) SW 225 11,0 C 14,8 C
16.09.2012 03:41 14,8 C 78 % 1018,0 hPa 0,0 l/m 7,6 km/h (2 Bft) W-SW 247 11,0 C 14,8 C
16.09.2012 03:46 14,8 C 79 % 1017,9 hPa 0,0 l/m 4,7 km/h (1 Bft) W-SW 247 11,2 C 14,8 C
16.09.2012 03:51 14,8 C 78 % 1017,9 hPa 0,0 l/m 5,4 km/h (1 Bft) SW 225 11,0 C 14,8 C
16.09.2012 03:56 14,8 C 78 % 1017,9 hPa 0,0 l/m 4,7 km/h (1 Bft) SW 225 11,0 C 14,8 C
16.09.2012 04:01 14,8 C 78 % 1017,9 hPa 0,0 l/m 4,0 km/h (1 Bft) SW 225 11,0 C 14,8 C
16.09.2012 04:06 14,8 C 78 % 1017,9 hPa 0,0 l/m 2,2 km/h (1 Bft) W-SW 247 11,0 C 14,8 C
16.09.2012 04:11 14,8 C 78 % 1017,9 hPa 0,0 l/m 3,2 km/h (1 Bft) SW 225 11,0 C 14,8 C
16.09.2012 04:16 14,7 C 78 % 1017,9 hPa 0,0 l/m 4,0 km/h (1 Bft) W-SW 247 10,9 C 14,7 C
16.09.2012 04:21 14,7 C 78 % 1018,0 hPa 0,0 l/m 6,1 km/h (2 Bft) W-SW 247 10,9 C 14,7 C
16.09.2012 04:26 14,6 C 78 % 1017,9 hPa 0,0 l/m 3,2 km/h (1 Bft) SW 225 10,8 C 14,6 C
16.09.2012 04:31 14,5 C 78 % 1017,9 hPa 0,0 l/m 5,0 km/h (1 Bft) SW 225 10,7 C 14,5 C
16.09.2012 04:36 14,4 C 78 % 1018,0 hPa 0,0 l/m 6,1 km/h (2 Bft) W-SW 247 10,6 C 14,4 C
16.09.2012 04:41 14,3 C 79 % 1017,9 hPa 0,0 l/m 5,0 km/h (1 Bft) W-SW 247 10,7 C 14,3 C
16.09.2012 04:46 14,1 C 79 % 1017,9 hPa 0,0 l/m 6,1 km/h (2 Bft) W-SW 247 10,5 C 14,1 C
16.09.2012 04:51 13,9 C 79 % 1017,8 hPa 0,0 l/m 3,6 km/h (1 Bft) W 270 10,3 C 13,9 C
16.09.2012 04:56 13,9 C 79 % 1017,9 hPa 0,0 l/m 5,8 km/h (2 Bft) SW 225 10,3 C 13,9 C
16.09.2012 05:01 13,8 C 79 % 1017,8 hPa 0,0 l/m 5,8 km/h (2 Bft) W 270 10,2 C 13,8 C
16.09.2012 05:06 13,6 C 80 % 1017,9 hPa 0,0 l/m 4,7 km/h (1 Bft) W 270 10,2 C 13,6 C
16.09.2012 05:11 13,5 C 80 % 1017,9 hPa 0,0 l/m 3,6 km/h (1 Bft) W-SW 247 10,1 C 13,5 C
16.09.2012 05:16 13,4 C 80 % 1017,8 hPa 0,0 l/m 5,0 km/h (1 Bft) W-SW 247 10,0 C 13,4 C
16.09.2012 05:21 13,3 C 80 % 1017,9 hPa 0,0 l/m 4,7 km/h (1 Bft) W-SW 247 9,9 C 13,3 C
16.09.2012 05:26 13,2 C 81 % 1017,8 hPa 0,0 l/m 3,2 km/h (1 Bft) SW 225 10,0 C 13,2 C
16.09.2012 05:31 13,1 C 81 % 1017,9 hPa 0,0 l/m 2,2 km/h (1 Bft) S-SW 202 9,9 C 13,1 C
16.09.2012 05:36 12,9 C 81 % 1017,8 hPa 0,0 l/m 2,5 km/h (1 Bft) SW 225 9,7 C 12,9 C
16.09.2012 05:41 12,9 C 81 % 1017,8 hPa 0,0 l/m 2,9 km/h (1 Bft) S-SW 202 9,7 C 12,9 C
16.09.2012 05:46 12,8 C 81 % 1017,8 hPa 0,0 l/m 0,0 km/h (0 Bft) S-SW 202 9,6 C 12,8 C
16.09.2012 05:51 12,7 C 81 % 1017,8 hPa 0,0 l/m 0,0 km/h (0 Bft) S-SW 202 9,5 C 12,7 C
16.09.2012 05:56 12,6 C 81 % 1017,8 hPa 0,0 l/m 0,0 km/h (0 Bft) S-SW 202 9,4 C 12,6 C
16.09.2012 06:01 12,4 C 81 % 1017,9 hPa 0,0 l/m 0,0 km/h (0 Bft) S-SW 202 9,2 C 12,4 C
16.09.2012 06:06 12,4 C 82 % 1017,9 hPa 0,0 l/m 2,2 km/h (1 Bft) S-SW 202 9,4 C 12,4 C
16.09.2012 06:11 12,3 C 82 % 1017,8 hPa 0,0 l/m 2,2 km/h (1 Bft) S-SW 202 9,3 C 12,3 C
16.09.2012 06:16 12,2 C 82 % 1017,8 hPa 0,0 l/m 0,0 km/h (0 Bft) S-SW 202 9,2 C 12,2 C
16.09.2012 06:21 12,1 C 82 % 1017,8 hPa 0,0 l/m 0,0 km/h (0 Bft) S-SW 202 9,1 C 12,1 C
16.09.2012 06:26 12,1 C 83 % 1017,7 hPa 0,0 l/m 0,0 km/h (0 Bft) S-SW 202 9,3 C 12,1 C
16.09.2012 06:31 11,9 C 83 % 1017,7 hPa 0,0 l/m 0,0 km/h (0 Bft) S-SW 202 9,1 C 11,9 C
16.09.2012 06:36 11,9 C 83 % 1017,8 hPa 0,0 l/m 1,1 km/h (1 Bft) S-SW 202 9,1 C 11,9 C
16.09.2012 06:41 11,8 C 84 % 1017,7 hPa 0,0 l/m 1,1 km/h (1 Bft) S-SW 202 9,2 C 11,8 C
16.09.2012 06:46 11,8 C 83 % 1017,7 hPa 0,0 l/m 0,0 km/h (0 Bft) S-SW 202 9,0 C 11,8 C
16.09.2012 06:51 11,8 C 84 % 1017,6 hPa 0,0 l/m 1,4 km/h (1 Bft) S-SW 202 9,2 C 11,8 C
16.09.2012 06:56 11,7 C 84 % 1017,6 hPa 0,0 l/m 2,2 km/h (1 Bft) S-SW 202 9,1 C 11,7 C
16.09.2012 07:01 11,6 C 84 % 1017,7 hPa 0,0 l/m 0,0 km/h (0 Bft) S-SW 202 9,0 C 11,6 C
16.09.2012 07:06 11,6 C 84 % 1017,8 hPa 0,0 l/m 2,2 km/h (1 Bft) S-SW 202 9,0 C 11,6 C
16.09.2012 07:11 11,6 C 84 % 1017,8 hPa 0,0 l/m 2,5 km/h (1 Bft) S-SO 157 9,0 C 11,6 C
16.09.2012 07:16 11,6 C 85 % 1017,9 hPa 0,0 l/m 5,0 km/h (1 Bft) S-SO 157 9,2 C 11,6 C
16.09.2012 07:21 11,6 C 85 % 1017,8 hPa 0,0 l/m 3,6 km/h (1 Bft) S-SO 157 9,2 C 11,6 C
16.09.2012 07:26 11,6 C 85 % 1017,8 hPa 0,0 l/m 6,1 km/h (2 Bft) S 180 9,2 C 11,6 C
16.09.2012 07:31 11,8 C 85 % 1017,8 hPa 0,0 l/m 1,8 km/h (1 Bft) S 180 9,4 C 11,8 C
16.09.2012 07:36 11,9 C 85 % 1017,7 hPa 0,0 l/m 0,0 km/h (0 Bft) S 180 9,5 C 11,9 C
16.09.2012 07:41 11,9 C 85 % 1017,8 hPa 0,0 l/m 7,6 km/h (2 Bft) S-SW 202 9,5 C 11,9 C
16.09.2012 07:46 12,1 C 85 % 1017,8 hPa 0,0 l/m 5,4 km/h (1 Bft) S 180 9,7 C 12,1 C
16.09.2012 07:51 12,2 C 85 % 1017,8 hPa 0,0 l/m 2,9 km/h (1 Bft) S-SO 157 9,8 C 12,2 C
16.09.2012 07:56 12,3 C 85 % 1017,7 hPa 0,0 l/m 4,0 km/h (1 Bft) S-SO 157 9,9 C 12,3 C
16.09.2012 08:01 12,4 C 85 % 1017,8 hPa 0,0 l/m 1,8 km/h (1 Bft) S-SO 157 9,9 C 12,4 C
16.09.2012 08:06 12,5 C 85 % 1017,7 hPa 0,0 l/m 2,9 km/h (1 Bft) S-SW 202 10,0 C 12,5 C
16.09.2012 08:11 12,6 C 85 % 1017,8 hPa 0,0 l/m 3,2 km/h (1 Bft) S-SO 157 10,1 C 12,6 C
16.09.2012 08:16 12,8 C 84 % 1017,8 hPa 0,0 l/m 1,1 km/h (1 Bft) S-SW 202 10,2 C 12,8 C
16.09.2012 08:21 12,9 C 85 % 1017,7 hPa 0,0 l/m 2,2 km/h (1 Bft) S-SW 202 10,4 C 12,9 C
16.09.2012 08:26 13,1 C 85 % 1017,8 hPa 0,0 l/m 0,0 km/h (0 Bft) S-SO 157 10,6 C 13,1 C
16.09.2012 08:31 13,3 C 84 % 1017,8 hPa 0,0 l/m 0,0 km/h (0 Bft) S-SO 157 10,7 C 13,3 C
16.09.2012 08:36 13,4 C 84 % 1017,8 hPa 0,0 l/m 2,5 km/h (1 Bft) S-SO 157 10,8 C 13,4 C
16.09.2012 08:41 13,6 C 84 % 1017,8 hPa 0,0 l/m 1,1 km/h (1 Bft) S 180 10,9 C 13,6 C
16.09.2012 08:46 13,6 C 83 % 1017,9 hPa 0,0 l/m 0,0 km/h (0 Bft) SW 225 10,8 C 13,6 C
16.09.2012 08:51 13,8 C 82 % 1017,8 hPa 0,0 l/m 4,0 km/h (1 Bft) W-SW 247 10,8 C 13,8 C
16.09.2012 08:56 13,9 C 82 % 1017,8 hPa 0,0 l/m 6,8 km/h (2 Bft) W-SW 247 10,9 C 13,9 C
16.09.2012 09:01 13,9 C 81 % 1017,8 hPa 0,0 l/m 4,0 km/h (1 Bft) S-SW 202 10,7 C 13,9 C
16.09.2012 09:06 14,1 C 81 % 1017,8 hPa 0,0 l/m 1,8 km/h (1 Bft) SW 225 10,9 C 14,1 C
16.09.2012 09:11 14,3 C 80 % 1017,8 hPa 0,0 l/m 5,8 km/h (2 Bft) SW 225 10,9 C 14,3 C
16.09.2012 09:16 14,4 C 79 % 1017,9 hPa 0,0 l/m 0,0 km/h (0 Bft) S 180 10,8 C 14,4 C
16.09.2012 09:21 14,4 C 79 % 1017,8 hPa 0,0 l/m 4,0 km/h (1 Bft) S-SW 202 10,8 C 14,4 C
16.09.2012 09:26 14,4 C 79 % 1017,8 hPa 0,0 l/m 4,7 km/h (1 Bft) S 180 10,8 C 14,4 C
16.09.2012 09:31 14,7 C 79 % 1017,8 hPa 0,0 l/m 3,6 km/h (1 Bft) W-SW 247 11,1 C 14,7 C
16.09.2012 09:36 14,9 C 79 % 1017,8 hPa 0,0 l/m 2,2 km/h (1 Bft) SW 225 11,3 C 14,9 C
16.09.2012 09:41 14,9 C 78 % 1017,9 hPa 0,0 l/m 9,4 km/h (2 Bft) SW 225 11,1 C 14,9 C
16.09.2012 09:46 15,3 C 78 % 1017,9 hPa 0,0 l/m 7,2 km/h (2 Bft) S-SW 202 11,5 C 15,3 C
16.09.2012 09:51 15,6 C 77 % 1017,9 hPa 0,0 l/m 3,6 km/h (1 Bft) S-SW 202 11,6 C 15,6 C
16.09.2012 09:56 15,8 C 76 % 1017,8 hPa 0,0 l/m 4,0 km/h (1 Bft) S-SW 202 11,6 C 15,8 C
16.09.2012 10:01 16,1 C 75 % 1017,9 hPa 0,0 l/m 3,6 km/h (1 Bft) S-SW 202 11,7 C 16,1 C
16.09.2012 10:06 16,3 C 74 % 1018,0 hPa 0,0 l/m 7,2 km/h (2 Bft) S-SW 202 11,7 C 16,3 C
16.09.2012 10:11 16,5 C 73 % 1017,9 hPa 0,0 l/m 7,6 km/h (2 Bft) SW 225 11,6 C 16,5 C
16.09.2012 10:16 16,7 C 72 % 1017,9 hPa 0,0 l/m 7,2 km/h (2 Bft) S-SW 202 11,6 C 16,7 C
16.09.2012 10:21 16,9 C 72 % 1017,9 hPa 0,0 l/m 7,2 km/h (2 Bft) S 180 11,8 C 16,9 C
16.09.2012 10:26 17,1 C 71 % 1017,8 hPa 0,0 l/m 1,8 km/h (1 Bft) S-SO 157 11,8 C 17,1 C
16.09.2012 10:31 17,3 C 70 % 1017,8 hPa 0,0 l/m 4,0 km/h (1 Bft) S-SW 202 11,8 C 17,3 C
16.09.2012 10:36 17,6 C 69 % 1017,8 hPa 0,0 l/m 5,0 km/h (1 Bft) S-SO 157 11,8 C 17,6 C
16.09.2012 10:41 17,8 C 68 % 1017,8 hPa 0,0 l/m 9,0 km/h (2 Bft) SW 225 11,8 C 17,8 C
16.09.2012 10:46 17,9 C 67 % 1017,7 hPa 0,0 l/m 4,0 km/h (1 Bft) S 180 11,7 C 17,9 C
16.09.2012 10:51 18,1 C 67 % 1017,8 hPa 0,0 l/m 5,4 km/h (1 Bft) SW 225 11,9 C 18,1 C
16.09.2012 10:56 18,3 C 66 % 1017,8 hPa 0,0 l/m 6,5 km/h (2 Bft) S-SO 157 11,8 C 18,3 C
16.09.2012 11:01 18,4 C 65 % 1017,7 hPa 0,0 l/m 5,0 km/h (1 Bft) W 270 11,7 C 18,4 C
16.09.2012 11:06 18,6 C 64 % 1017,8 hPa 0,0 l/m 12,6 km/h (3 Bft) W-SW 247 11,7 C 18,6 C
16.09.2012 11:11 18,6 C 62 % 1017,7 hPa 0,0 l/m 14,8 km/h (3 Bft) W-SW 247 11,2 C 18,6 C
16.09.2012 11:16 18,6 C 62 % 1017,6 hPa 0,0 l/m 5,8 km/h (2 Bft) S 180 11,2 C 18,6 C
16.09.2012 11:21 18,8 C 62 % 1017,6 hPa 0,0 l/m 8,3 km/h (2 Bft) W-SW 247 11,4 C 18,8 C
16.09.2012 11:26 18,9 C 62 % 1017,6 hPa 0,0 l/m 4,3 km/h (1 Bft) S-SW 202 11,5 C 18,9 C
16.09.2012 11:31 19,1 C 61 % 1017,5 hPa 0,0 l/m 7,2 km/h (2 Bft) W-SW 247 11,4 C 19,1 C
16.09.2012 11:36 19,1 C 59 % 1017,5 hPa 0,0 l/m 11,9 km/h (2 Bft) W-SW 247 10,9 C 19,1 C
16.09.2012 11:41 19,3 C 59 % 1017,4 hPa 0,0 l/m 4,7 km/h (1 Bft) S-SO 157 11,1 C 19,3 C
16.09.2012 11:46 19,4 C 60 % 1017,4 hPa 0,0 l/m 12,6 km/h (3 Bft) W 270 11,4 C 19,4 C
16.09.2012 11:51 19,5 C 59 % 1017,3 hPa 0,0 l/m 4,7 km/h (1 Bft) SO 135 11,3 C 19,5 C
16.09.2012 11:56 19,6 C 58 % 1017,2 hPa 0,0 l/m 4,7 km/h (1 Bft) S-SW 202 11,1 C 19,6 C
16.09.2012 12:01 19,6 C 58 % 1017,1 hPa 0,0 l/m 10,1 km/h (2 Bft) S 180 11,1 C 19,6 C
16.09.2012 12:06 19,8 C 56 % 1017,0 hPa 0,0 l/m 12,6 km/h (3 Bft) W 270 10,8 C 19,8 C
16.09.2012 12:11 19,8 C 56 % 1017,0 hPa 0,0 l/m 6,5 km/h (2 Bft) S 180 10,8 C 19,8 C
16.09.2012 12:16 19,9 C 56 % 1016,9 hPa 0,0 l/m 2,5 km/h (1 Bft) W-NW 292 10,9 C 19,9 C
16.09.2012 12:21 20,0 C 55 % 1017,0 hPa 0,0 l/m 15,5 km/h (3 Bft) W 270 10,7 C 20,0 C
16.09.2012 12:26 20,0 C 55 % 1017,1 hPa 0,0 l/m 6,5 km/h (2 Bft) W-SW 247 10,7 C 20,0 C
16.09.2012 12:31 20,1 C 54 % 1017,0 hPa 0,0 l/m 11,5 km/h (2 Bft) W-SW 247 10,5 C 20,1 C
16.09.2012 12:36 20,2 C 54 % 1016,9 hPa 0,0 l/m 19,8 km/h (3 Bft) SW 225 10,6 C 20,2 C
16.09.2012 12:41 20,2 C 54 % 1016,8 hPa 0,0 l/m 7,9 km/h (2 Bft) W-SW 247 10,6 C 20,2 C
16.09.2012 12:46 20,2 C 54 % 1016,9 hPa 0,0 l/m 5,0 km/h (1 Bft) SW 225 10,6 C 20,2 C
16.09.2012 12:51 20,3 C 55 % 1016,8 hPa 0,0 l/m 6,1 km/h (2 Bft) S-SW 202 11,0 C 20,3 C
16.09.2012 12:56 20,4 C 54 % 1016,7 hPa 0,0 l/m 8,3 km/h (2 Bft) SW 225 10,8 C 20,4 C
16.09.2012 13:01 20,5 C 54 % 1016,5 hPa 0,0 l/m 12,6 km/h (3 Bft) W 270 10,9 C 20,5 C
16.09.2012 13:06 20,6 C 53 % 1016,7 hPa 0,0 l/m 28,4 km/h (4 Bft) W 270 10,7 C 20,6 C
16.09.2012 13:11 20,7 C 54 % 1016,6 hPa 0,0 l/m 6,8 km/h (2 Bft) W-SW 247 11,1 C 20,7 C
16.09.2012 13:16 20,6 C 53 % 1016,6 hPa 0,0 l/m 10,1 km/h (2 Bft) W-SW 247 10,7 C 20,6 C
16.09.2012 13:21 20,5 C 54 % 1016,4 hPa 0,0 l/m 7,6 km/h (2 Bft) S-SW 202 10,9 C 20,5 C
16.09.2012 13:26 20,4 C 54 % 1016,4 hPa 0,0 l/m 6,5 km/h (2 Bft) SW 225 10,8 C 20,4 C
16.09.2012 13:31 20,5 C 54 % 1016,3 hPa 0,0 l/m 12,6 km/h (3 Bft) W-SW 247 10,9 C 20,5 C
16.09.2012 13:36 20,7 C 54 % 1016,4 hPa 0,0 l/m 9,4 km/h (2 Bft) S 180 11,1 C 20,7 C
16.09.2012 13:41 20,9 C 53 % 1016,3 hPa 0,0 l/m 13,3 km/h (3 Bft) SW 225 11,0 C 20,9 C
16.09.2012 13:46 21,1 C 53 % 1016,3 hPa 0,0 l/m 6,1 km/h (2 Bft) S 180 11,1 C 21,1 C
16.09.2012 13:51 21,2 C 53 % 1016,2 hPa 0,0 l/m 14,8 km/h (3 Bft) SW 225 11,2 C 21,2 C
16.09.2012 13:56 21,4 C 52 % 1016,1 hPa 0,0 l/m 16,6 km/h (3 Bft) W-SW 247 11,1 C 21,4 C
16.09.2012 14:01 21,4 C 52 % 1016,0 hPa 0,0 l/m 8,3 km/h (2 Bft) W 270 11,1 C 21,4 C
16.09.2012 14:06 21,6 C 52 % 1015,9 hPa 0,0 l/m 23,0 km/h (4 Bft) S-SW 202 11,3 C 21,6 C
16.09.2012 14:11 21,8 C 51 % 1015,9 hPa 0,0 l/m 5,8 km/h (2 Bft) S-SO 157 11,2 C 21,8 C
16.09.2012 14:16 21,8 C 49 % 1015,7 hPa 0,0 l/m 12,2 km/h (2 Bft) S 180 10,6 C 21,8 C
16.09.2012 14:21 21,9 C 49 % 1015,9 hPa 0,0 l/m 16,2 km/h (3 Bft) S-SW 202 10,7 C 21,9 C
16.09.2012 14:26 21,9 C 49 % 1015,8 hPa 0,0 l/m 4,7 km/h (1 Bft) S-SW 202 10,7 C 21,9 C
16.09.2012 14:31 21,9 C 49 % 1015,7 hPa 0,0 l/m 10,8 km/h (2 Bft) W-SW 247 10,7 C 21,9 C
16.09.2012 14:36 22,1 C 49 % 1015,6 hPa 0,0 l/m 13,7 km/h (3 Bft) S-SW 202 10,9 C 22,1 C
16.09.2012 14:41 22,2 C 48 % 1015,7 hPa 0,0 l/m 7,9 km/h (2 Bft) W-SW 247 10,7 C 22,2 C
16.09.2012 14:46 22,3 C 48 % 1015,6 hPa 0,0 l/m 10,4 km/h (2 Bft) W-SW 247 10,8 C 22,3 C
16.09.2012 14:51 22,3 C 48 % 1015,6 hPa 0,0 l/m 16,9 km/h (3 Bft) S-SW 202 10,8 C 22,3 C
16.09.2012 14:56 22,3 C 47 % 1015,5 hPa 0,0 l/m 9,4 km/h (2 Bft) S-SW 202 10,4 C 22,3 C
16.09.2012 15:01 22,4 C 48 % 1015,4 hPa 0,0 l/m 6,1 km/h (2 Bft) SW 225 10,8 C 22,4 C
16.09.2012 15:06 22,6 C 47 % 1015,4 hPa 0,0 l/m 9,7 km/h (2 Bft) W-SW 247 10,7 C 22,6 C
16.09.2012 15:11 22,6 C 47 % 1015,3 hPa 0,0 l/m 5,4 km/h (1 Bft) SW 225 10,7 C 22,6 C
16.09.2012 15:16 22,6 C 46 % 1015,3 hPa 0,0 l/m 24,5 km/h (4 Bft) W-SW 247 10,4 C 22,6 C
16.09.2012 15:21 22,6 C 46 % 1015,3 hPa 0,0 l/m 13,3 km/h (3 Bft) S 180 10,4 C 22,6 C
16.09.2012 15:26 22,6 C 47 % 1015,1 hPa 0,0 l/m 7,6 km/h (2 Bft) S-SW 202 10,7 C 22,6 C
16.09.2012 15:31 22,7 C 46 % 1015,0 hPa 0,0 l/m 8,3 km/h (2 Bft) S 180 10,5 C 22,7 C
16.09.2012 15:36 22,7 C 46 % 1015,1 hPa 0,0 l/m 9,7 km/h (2 Bft) W-SW 247 10,5 C 22,7 C
16.09.2012 15:41 22,8 C 46 % 1015,0 hPa 0,0 l/m 13,0 km/h (3 Bft) SW 225 10,6 C 22,8 C
16.09.2012 15:46 22,7 C 46 % 1014,9 hPa 0,0 l/m 8,6 km/h (2 Bft) W 270 10,5 C 22,7 C
16.09.2012 15:51 22,6 C 46 % 1014,9 hPa 0,0 l/m 10,4 km/h (2 Bft) W-SW 247 10,4 C 22,6 C
16.09.2012 15:56 22,8 C 46 % 1014,9 hPa 0,0 l/m 8,3 km/h (2 Bft) W-SW 247 10,6 C 22,8 C
16.09.2012 16:01 22,9 C 46 % 1014,6 hPa 0,0 l/m 13,7 km/h (3 Bft) SW 225 10,7 C 22,9 C
16.09.2012 16:06 22,8 C 45 % 1014,6 hPa 0,0 l/m 17,3 km/h (3 Bft) SW 225 10,2 C 22,8 C
16.09.2012 16:11 22,8 C 45 % 1014,5 hPa 0,0 l/m 10,1 km/h (2 Bft) W-SW 247 10,2 C 22,8 C
16.09.2012 16:16 22,8 C 46 % 1014,5 hPa 0,0 l/m 4,7 km/h (1 Bft) S-SW 202 10,6 C 22,8 C
16.09.2012 16:21 22,9 C 45 % 1014,5 hPa 0,0 l/m 11,2 km/h (2 Bft) SW 225 10,3 C 22,9 C
16.09.2012 16:26 23,0 C 45 % 1014,5 hPa 0,0 l/m 3,6 km/h (1 Bft) W-SW 247 10,4 C 23,0 C
16.09.2012 16:31 23,0 C 45 % 1014,5 hPa 0,0 l/m 7,2 km/h (2 Bft) W 270 10,4 C 23,0 C
16.09.2012 16:36 23,0 C 44 % 1014,4 hPa 0,0 l/m 13,3 km/h (3 Bft) SW 225 10,1 C 23,0 C
16.09.2012 16:41 22,9 C 45 % 1014,4 hPa 0,0 l/m 11,2 km/h (2 Bft) W-SW 247 10,3 C 22,9 C
16.09.2012 16:46 22,9 C 45 % 1014,2 hPa 0,0 l/m 9,4 km/h (2 Bft) SW 225 10,3 C 22,9 C
16.09.2012 16:51 23,0 C 45 % 1014,2 hPa 0,0 l/m 11,5 km/h (2 Bft) SW 225 10,4 C 23,0 C
16.09.2012 16:56 23,0 C 45 % 1014,1 hPa 0,0 l/m 6,1 km/h (2 Bft) S-SW 202 10,4 C 23,0 C
16.09.2012 17:01 23,1 C 45 % 1014,0 hPa 0,0 l/m 7,6 km/h (2 Bft) SW 225 10,5 C 23,1 C
16.09.2012 17:06 22,9 C 44 % 1014,0 hPa 0,0 l/m 9,4 km/h (2 Bft) S-SO 157 10,0 C 22,9 C
16.09.2012 17:11 22,9 C 45 % 1013,9 hPa 0,0 l/m 13,3 km/h (3 Bft) S-SW 202 10,3 C 22,9 C
16.09.2012 17:16 22,9 C 45 % 1013,9 hPa 0,0 l/m 6,1 km/h (2 Bft) SO 135 10,3 C 22,9 C
16.09.2012 17:21 22,9 C 45 % 1013,9 hPa 0,0 l/m 2,2 km/h (1 Bft) SW 225 10,3 C 22,9 C
16.09.2012 17:26 22,9 C 45 % 1013,9 hPa 0,0 l/m 0,0 km/h (0 Bft) S-SW 202 10,3 C 22,9 C
16.09.2012 17:31 22,9 C 45 % 1013,9 hPa 0,0 l/m 4,3 km/h (1 Bft) SW 225 10,3 C 22,9 C
16.09.2012 17:36 22,8 C 45 % 1013,9 hPa 0,0 l/m 6,8 km/h (2 Bft) SW 225 10,2 C 22,8 C
16.09.2012 17:41 22,6 C 45 % 1013,9 hPa 0,0 l/m 8,6 km/h (2 Bft) W-SW 247 10,1 C 22,6 C
16.09.2012 17:46 22,4 C 46 % 1013,9 hPa 0,0 l/m 5,0 km/h (1 Bft) SW 225 10,2 C 22,4 C
16.09.2012 17:51 22,3 C 46 % 1013,8 hPa 0,0 l/m 9,4 km/h (2 Bft) S-SW 202 10,1 C 22,3 C
16.09.2012 17:56 22,1 C 46 % 1013,9 hPa 0,0 l/m 5,0 km/h (1 Bft) W-SW 247 9,9 C 22,1 C
16.09.2012 18:01 22,1 C 47 % 1013,9 hPa 0,0 l/m 7,6 km/h (2 Bft) W-SW 247 10,3 C 22,1 C
16.09.2012 18:06 22,0 C 47 % 1013,8 hPa 0,0 l/m 2,5 km/h (1 Bft) SW 225 10,2 C 22,0 C
16.09.2012 18:11 21,9 C 47 % 1013,8 hPa 0,0 l/m 2,2 km/h (1 Bft) SW 225 10,1 C 21,9 C
16.09.2012 18:16 21,8 C 48 % 1013,8 hPa 0,0 l/m 2,2 km/h (1 Bft) SW 225 10,3 C 21,8 C
16.09.2012 18:21 21,8 C 48 % 1013,8 hPa 0,0 l/m 4,0 km/h (1 Bft) S-SW 202 10,3 C 21,8 C
16.09.2012 18:26 21,8 C 48 % 1013,7 hPa 0,0 l/m 6,1 km/h (2 Bft) S-SW 202 10,3 C 21,8 C
16.09.2012 18:31 21,5 C 49 % 1013,8 hPa 0,0 l/m 4,0 km/h (1 Bft) S-SW 202 10,3 C 21,5 C
16.09.2012 18:36 21,3 C 49 % 1013,7 hPa 0,0 l/m 4,0 km/h (1 Bft) S-SW 202 10,1 C 21,3 C
16.09.2012 18:41 21,2 C 49 % 1013,6 hPa 0,0 l/m 6,1 km/h (2 Bft) S-SW 202 10,1 C 21,2 C
16.09.2012 18:46 20,9 C 50 % 1013,6 hPa 0,0 l/m 4,0 km/h (1 Bft) S 180 10,1 C 20,9 C
16.09.2012 18:51 20,7 C 50 % 1013,5 hPa 0,0 l/m 3,6 km/h (1 Bft) S-SW 202 9,9 C 20,7 C
16.09.2012 18:56 20,4 C 51 % 1013,5 hPa 0,0 l/m 0,0 km/h (0 Bft) S-SW 202 9,9 C 20,4 C
16.09.2012 19:01 20,2 C 51 % 1013,5 hPa 0,0 l/m 0,0 km/h (0 Bft) S 180 9,7 C 20,2 C
16.09.2012 19:06 19,9 C 52 % 1013,6 hPa 0,0 l/m 2,9 km/h (1 Bft) S 180 9,7 C 19,9 C
16.09.2012 19:11 19,8 C 52 % 1013,5 hPa 0,0 l/m 2,5 km/h (1 Bft) S-SO 157 9,7 C 19,8 C
16.09.2012 19:16 19,5 C 53 % 1013,5 hPa 0,0 l/m 3,6 km/h (1 Bft) S-SO 157 9,7 C 19,5 C
16.09.2012 19:21 19,3 C 54 % 1013,7 hPa 0,0 l/m 1,4 km/h (1 Bft) S-SO 157 9,8 C 19,3 C
16.09.2012 19:26 19,1 C 55 % 1013,5 hPa 0,0 l/m 1,1 km/h (1 Bft) S-SO 157 9,8 C 19,1 C
16.09.2012 19:31 18,9 C 55 % 1013,6 hPa 0,0 l/m 4,7 km/h (1 Bft) S 180 9,7 C 18,9 C
16.09.2012 19:36 18,6 C 56 % 1013,6 hPa 0,0 l/m 1,8 km/h (1 Bft) S 180 9,6 C 18,6 C
16.09.2012 19:41 18,4 C 57 % 1013,6 hPa 0,0 l/m 2,2 km/h (1 Bft) S-SO 157 9,7 C 18,4 C
16.09.2012 19:46 18,3 C 58 % 1013,6 hPa 0,0 l/m 1,8 km/h (1 Bft) S-SO 157 9,9 C 18,3 C
16.09.2012 19:51 18,1 C 58 % 1013,6 hPa 0,0 l/m 2,2 km/h (1 Bft) S-SO 157 9,7 C 18,1 C
16.09.2012 19:56 17,9 C 58 % 1013,6 hPa 0,0 l/m 0,0 km/h (0 Bft) S-SO 157 9,5 C 17,9 C
16.09.2012 20:01 17,6 C 59 % 1013,7 hPa 0,0 l/m 0,0 km/h (0 Bft) S-SO 157 9,5 C 17,6 C
16.09.2012 20:06 17,4 C 59 % 1013,7 hPa 0,0 l/m 1,1 km/h (1 Bft) S-SO 157 9,3 C 17,4 C
16.09.2012 20:11 17,2 C 60 % 1013,6 hPa 0,0 l/m 0,0 km/h (0 Bft) S-SO 157 9,4 C 17,2 C
16.09.2012 20:16 16,9 C 60 % 1013,6 hPa 0,0 l/m 1,8 km/h (1 Bft) S-SO 157 9,1 C 16,9 C
16.09.2012 20:21 16,8 C 61 % 1013,7 hPa 0,0 l/m 1,4 km/h (1 Bft) S-SO 157 9,2 C 16,8 C
16.09.2012 20:26 16,6 C 62 % 1013,6 hPa 0,0 l/m 0,0 km/h (0 Bft) S-SO 157 9,3 C 16,6 C
16.09.2012 20:31 16,4 C 62 % 1013,6 hPa 0,0 l/m 1,8 km/h (1 Bft) S-SO 157 9,1 C 16,4 C
16.09.2012 20:36 16,3 C 62 % 1013,7 hPa 0,0 l/m 0,0 km/h (0 Bft) S-SO 157 9,0 C 16,3 C
16.09.2012 20:41 16,1 C 63 % 1013,6 hPa 0,0 l/m 0,0 km/h (0 Bft) S-SO 157 9,1 C 16,1 C
16.09.2012 20:46 15,9 C 63 % 1013,7 hPa 0,0 l/m 0,0 km/h (0 Bft) S-SO 157 8,9 C 15,9 C
16.09.2012 20:51 15,8 C 64 % 1013,6 hPa 0,0 l/m 3,6 km/h (1 Bft) S-SO 157 9,0 C 15,8 C
16.09.2012 20:56 15,6 C 65 % 1013,5 hPa 0,0 l/m 2,5 km/h (1 Bft) S-SO 157 9,0 C 15,6 C
16.09.2012 21:01 15,5 C 65 % 1013,5 hPa 0,0 l/m 2,5 km/h (1 Bft) S-SO 157 8,9 C 15,5 C
16.09.2012 21:06 15,3 C 65 % 1013,4 hPa 0,0 l/m 0,0 km/h (0 Bft) S-SO 157 8,8 C 15,3 C
16.09.2012 21:11 15,2 C 65 % 1013,3 hPa 0,0 l/m 1,8 km/h (1 Bft) S-SO 157 8,7 C 15,2 C
16.09.2012 21:16 15,1 C 66 % 1013,2 hPa 0,0 l/m 2,5 km/h (1 Bft) S-SO 157 8,8 C 15,1 C
16.09.2012 21:21 15,1 C 66 % 1013,2 hPa 0,0 l/m 1,8 km/h (1 Bft) SO 135 8,8 C 15,1 C
16.09.2012 21:26 14,9 C 67 % 1013,2 hPa 0,0 l/m 1,8 km/h (1 Bft) S-SO 157 8,8 C 14,9 C
16.09.2012 21:31 14,9 C 67 % 1013,2 hPa 0,0 l/m 2,2 km/h (1 Bft) SO 135 8,8 C 14,9 C
16.09.2012 21:36 14,9 C 67 % 1013,2 hPa 0,0 l/m 1,1 km/h (1 Bft) SO 135 8,8 C 14,9 C
16.09.2012 21:41 14,9 C 67 % 1013,2 hPa 0,0 l/m 1,1 km/h (1 Bft) SO 135 8,8 C 14,9 C
16.09.2012 21:46 14,9 C 67 % 1013,3 hPa 0,0 l/m 0,0 km/h (0 Bft) SO 135 8,8 C 14,9 C
16.09.2012 21:51 14,9 C 67 % 1013,2 hPa 0,0 l/m 2,5 km/h (1 Bft) SO 135 8,8 C 14,9 C
16.09.2012 21:56 14,7 C 67 % 1013,2 hPa 0,0 l/m 0,0 km/h (0 Bft) S-SO 157 8,6 C 14,7 C
16.09.2012 22:01 14,6 C 68 % 1013,2 hPa 0,0 l/m 0,0 km/h (0 Bft) S-SO 157 8,8 C 14,6 C
16.09.2012 22:06 14,5 C 68 % 1013,3 hPa 0,0 l/m 1,4 km/h (1 Bft) S-SO 157 8,7 C 14,5 C
16.09.2012 22:11 14,4 C 68 % 1013,1 hPa 0,0 l/m 0,0 km/h (0 Bft) S-SO 157 8,6 C 14,4 C
16.09.2012 22:16 14,3 C 68 % 1013,1 hPa 0,0 l/m 0,0 km/h (0 Bft) S-SO 157 8,5 C 14,3 C
16.09.2012 22:21 14,2 C 69 % 1013,2 hPa 0,0 l/m 0,0 km/h (0 Bft) S-SO 157 8,6 C 14,2 C
16.09.2012 22:26 14,0 C 69 % 1013,2 hPa 0,0 l/m 1,1 km/h (1 Bft) S-SO 157 8,4 C 14,0 C
16.09.2012 22:31 13,9 C 69 % 1013,3 hPa 0,0 l/m 2,9 km/h (1 Bft) S-SO 157 8,3 C 13,9 C
16.09.2012 22:36 13,8 C 70 % 1013,3 hPa 0,0 l/m 0,0 km/h (0 Bft) S-SO 157 8,4 C 13,8 C
16.09.2012 22:41 13,6 C 70 % 1013,3 hPa 0,0 l/m 0,0 km/h (0 Bft) S 180 8,2 C 13,6 C
16.09.2012 22:46 13,5 C 71 % 1013,4 hPa 0,0 l/m 1,8 km/h (1 Bft) W-SW 247 8,3 C 13,5 C
16.09.2012 22:51 13,5 C 71 % 1013,4 hPa 0,0 l/m 3,6 km/h (1 Bft) S-SW 202 8,3 C 13,5 C
16.09.2012 22:56 13,4 C 72 % 1013,4 hPa 0,0 l/m 1,4 km/h (1 Bft) S-SO 157 8,5 C 13,4 C
16.09.2012 23:01 13,4 C 73 % 1013,4 hPa 0,0 l/m 1,4 km/h (1 Bft) S-SO 157 8,7 C 13,4 C
16.09.2012 23:06 13,4 C 74 % 1013,3 hPa 0,0 l/m 1,8 km/h (1 Bft) S-SO 157 8,9 C 13,4 C
16.09.2012 23:11 13,4 C 74 % 1013,4 hPa 0,0 l/m 2,2 km/h (1 Bft) S-SO 157 8,9 C 13,4 C
16.09.2012 23:16 13,3 C 74 % 1013,4 hPa 0,0 l/m 1,4 km/h (1 Bft) S-SO 157 8,8 C 13,3 C
16.09.2012 23:21 13,3 C 75 % 1013,2 hPa 0,0 l/m 1,4 km/h (1 Bft) S-SO 157 9,0 C 13,3 C
16.09.2012 23:26 13,3 C 75 % 1013,2 hPa 0,0 l/m 1,1 km/h (1 Bft) S 180 9,0 C 13,3 C
16.09.2012 23:31 13,3 C 75 % 1013,1 hPa 0,0 l/m 2,5 km/h (1 Bft) S-SO 157 9,0 C 13,3 C
16.09.2012 23:36 13,3 C 75 % 1013,1 hPa 0,0 l/m 3,6 km/h (1 Bft) S-SO 157 9,0 C 13,3 C
16.09.2012 23:41 13,3 C 75 % 1013,1 hPa 0,0 l/m 2,9 km/h (1 Bft) S-SO 157 9,0 C 13,3 C
16.09.2012 23:46 13,3 C 75 % 1013,1 hPa 0,0 l/m 2,5 km/h (1 Bft) S 180 9,0 C 13,3 C
16.09.2012 23:51 13,2 C 75 % 1013,1 hPa 0,0 l/m 1,8 km/h (1 Bft) S 180 8,9 C 13,2 C
16.09.2012 23:56 13,2 C 75 % 1013,0 hPa 0,0 l/m 2,9 km/h (1 Bft) S-SO 157 8,9 C 13,2 C
_ Min-Zeit 07:01 16:36 23:56 - 02:21 - - 22:41 07:01
Minimum _ 11,6 C 44 % 1013,0 hPa - 0,0 km/h (0 Bft) - - 8,2 C 11,6 C
_ Max-Zeit 17:01 07:16 01:51 00:11 13:06 - - 10:51 17:01
Maximum _ 23,1 C 85 % 1018,2 hPa 0,5 l/m 28,4 km/h
W (4 Bft)
- - 11,9 C 23,1 C
Durchschnitt _ 16,9 C 67 % 1016,1 hPa #0,5 l/m 5,1 km/h (1 Bft) W-SW - 10,3 C 16,9 C
(c) by David Heller